#timestamp,LO_Frequency,Hit,StdDev 
1589364015.6,286046998.8,P
1589364035.4,286046998.8,N
1589364055.3,286046996.9,P
1589364075.1,286046999.3,N
1589364076.0,286046999.3,N
1589364095.8,286046996.9,Y
1589364115.7,286046998.3,P
1589364135.5,286047001.1,P
1589364155.3,286046998.5,N
1589364175.2,286046998.7,N
1589364195.9,286046996.9,Y
1589364215.7,286046999.9,P
1589364235.6,286047002.3,P
1589364255.4,286047002.8,N
1589364275.2,286047002.7,N
1589364295.1,286047002.6,N
1589364296.0,286047002.6,N
1589364315.8,286047000.0,N
1589364335.6,286047000.2,N
1589364355.5,286047002.1,N
1589364375.3,286047002.7,N
1589364395.1,286047000.3,N
1589364415.9,286047000.0,N
1589364435.7,286046999.7,N
1589364455.5,286047000.8,N
1589364475.4,286047000.3,N
1589364495.2,286046998.2,N
1589364515.0,286047000.9,N
1589364515.9,286047000.9,N
1589364535.8,286047001.2,N
1589364555.6,286047000.3,N
1589364575.4,286046999.7,N
1589364595.3,286047001.2,N
1589364615.1,286046999.7,N
1589364616.0,286046999.7,N
1589364635.8,286047000.4,N
1589364655.7,286047000.0,N
1589364675.5,286046999.8,N
1589364695.3,286047000.1,N
1589364715.2,286046999.9,N
1589364735.9,286047002.4,N
1589364755.7,286047000.2,N
1589364775.6,286047000.4,N
1589364795.4,286047002.8,N
1589364815.2,286047002.3,N
1589364835.1,286047002.6,N
1589364836.0,286047002.6,N
1589364855.8,286047001.9,N
1589364875.6,286047001.7,N
1589364895.5,286047002.0,N
1589364915.3,286047001.6,N
1589364935.1,286047002.0,N
1589364955.9,286047001.7,N
1589364975.7,286047001.5,N
1589364995.5,286047001.7,N
1589365015.3,286047001.3,N
1589365035.2,286047004.3,Y
1589365055.0,286047002.7,P
1589365055.9,286047002.7,P
1589365075.8,286047002.4,N
1589365095.6,286046999.7,N
1589365115.4,286047002.0,N
1589365135.3,286047002.8,N
1589365155.1,286047002.6,N
1589365156.0,286047002.6,N
1589365175.8,286047001.4,N
1589365195.7,286047003.8,Y
1589365215.5,286047000.1,P
1589365235.3,286047002.8,N
1589365255.2,286047000.1,N
1589365275.9,286047000.5,N
1589365295.7,286046999.9,N
1589365315.6,286047002.0,N
1589365335.4,286047002.7,N
1589365355.2,286046999.7,N
1589365375.1,286047000.2,N
1589365376.0,286047000.2,N
1589365395.8,286046999.7,N
1589365415.6,286047000.2,N
1589365435.5,286047002.1,N
1589365455.3,286047002.4,N
1589365475.1,286047000.0,N
1589365495.9,286047000.9,N
1589365515.7,286046999.8,N
1589365535.5,286047000.3,N
1589365555.4,286047002.8,N
1589365575.2,286047000.4,N
1589365595.0,286047000.4,N
1589365595.9,286047000.4,N
1589365615.8,286047000.8,N
1589365635.6,286047002.5,N
1589365655.4,286047001.6,N
1589365675.2,286047002.0,N
1589365695.1,286047001.9,N
1589365696.0,286047001.9,N
1589365715.8,286047001.5,N
1589365735.6,286047001.8,N
1589365755.5,286047002.6,N
1589365775.3,286047002.3,N
1589365795.1,286047002.8,N
1589365815.9,286047001.9,N
1589365835.7,286047002.3,N
1589365855.5,286047002.7,N
1589365875.4,286047002.5,N
1589365895.2,286047002.0,N
1589365915.0,286046999.7,N
1589365915.9,286046999.7,N
1589365935.8,286046999.8,N
1589365955.6,286047002.3,N
1589365975.4,286047000.2,N
1589365995.3,286047001.0,N
1589366015.1,286046999.8,N
1589366035.8,286047000.0,N
1589366055.7,286047000.2,N
1589366075.5,286046999.7,N
1589366095.3,286046999.7,N
1589366115.2,286047002.7,N
1589366135.0,286047002.2,N
1589366135.9,286047002.2,N
1589366155.7,286047002.1,N
1589366175.6,286047002.8,N
1589366195.4,286047001.5,N
1589366215.2,286047002.2,N
1589366235.1,286047000.3,N
1589366236.0,286047000.3,N
1589366255.8,286047000.0,N
1589366275.6,286047000.1,N
1589366295.5,286046998.1,N
1589366315.3,286047000.2,N
1589366335.1,286047000.2,N
1589366355.9,286047000.8,N
1589366375.7,286047000.4,N
1589366395.5,286047002.5,N
1589366415.4,286046999.8,N
1589366435.2,286046999.8,N
1589366455.0,286047000.4,N
1589366455.9,286047000.4,N
1589366475.8,286047000.6,N
1589366495.6,286046999.8,N
1589366515.4,286047000.2,N
1589366535.3,286047000.0,N
1589366555.1,286047000.5,N
1589366575.8,286047002.4,N
1589366595.7,286047000.6,N
1589366615.5,286047001.0,N
1589366635.3,286046999.9,N
1589366655.2,286047002.5,N
1589366675.9,286047002.4,N
1589366695.7,286047000.9,N
1589366715.6,286047000.0,N
1589366735.4,286046998.6,N
1589366755.2,286046996.6,Y
1589366775.1,286046998.7,P
1589366776.0,286046998.7,N
1589366795.8,286046998.5,N
1589366815.6,286046999.0,N
1589366835.5,286046999.1,N
1589366855.3,286046998.6,N
1589366875.1,286046999.0,N
1589366895.9,286046998.7,N
1589366915.7,286047001.2,N
1589366935.5,286046999.1,N
1589366955.4,286046996.6,Y
1589366975.2,286046998.2,P
1589366995.0,286047001.2,N
1589366995.9,286047001.2,N
1589367015.8,286047001.2,N
1589367035.6,286046998.1,N
1589367055.4,286047000.8,N
1589367075.3,286047001.2,N
1589367095.1,286046998.6,N
1589367115.8,286046998.6,N
1589367135.7,286046999.6,N
1589367155.5,286046998.8,N
1589367175.3,286046998.3,N
1589367195.2,286047000.7,N
1589367215.9,286046998.2,N
1589367235.7,286046998.6,N
1589367255.6,286046998.3,N
1589367275.4,286047000.9,N
1589367295.2,286047000.7,N
1589367315.1,286046998.1,N
1589367316.0,286046998.1,N
1589367335.8,286046998.1,N
1589367355.6,286047000.9,N
1589367375.5,286046998.1,N
1589367395.3,286046998.9,N
1589367415.1,286046999.3,N
1589367435.9,286046996.8,N
1589367455.7,286046997.0,N
1589367475.5,286046999.4,N
1589367495.4,286046999.4,N
1589367515.2,286046999.6,N
1589367535.0,286046999.6,N
1589367535.9,286046999.6,N
1589367555.8,286046996.5,N
1589367575.6,286046996.6,N
1589367595.4,286046996.6,N
